Terug naar catalogus

LAGEOS 1

ActiefWetenschapMEO
NORAD 8820·PAYLOAD·🇺🇸 United States

Gelanceerd May 4, 1976 vanaf Vandenberg Space Force Base

Loading…

Volgende Passages (komende 24 uur)

TLE

VersSource: CelesTrak SupGP

Epoch: Sep 14, 2026, 00:00 UTC

1 08820C 76039A   26257.00000000  .00000001  00000+0  00000+0 0  2571
2 08820 109.8170 209.7295 0044606 283.2259  33.7454  6.38664916    17

Volg LAGEOS 1 in realtime met AllMySat

Download on the App Store